Wind_Speed
105 107 108 109 110 112 113 114 115 114 114 113 113 112 112 112 112 112 113 113 113 114 114 115 116 116 117 118 119 120 121 122 124 125 126 128 128 129 130 131 132 133 134 135 136 136 137 138 138 139 139 139 139 138 138 137 135 133 131 128 125 121 118 114 110 107 103 99 96 93 91 88 86 84 82 81 79 78 77 76 76 75 75 75 74 74
108 109 110 111 112 113 114 114 113 112 111 111 110 110 110 111 111 112 113 113 114 115 116 117 118 119 120 121 122 123 124 126 127 128 128 129 130 131 132 133 134 135 136 137 138 138 139 139 139 139 139 139 138 138 137 135 133 131 128 125 121 118 114 110 107 103 100 97 94 91 89 87 85 83 81 80 78 77 77 76 76 75 75 75 75 74
108 109 110 110 111 111 111 111 110 109 109 109 109 110 110 111 113 114 115 116 117 118 119 120 121 122 123 124 125 126 127 128 128 129 130 131 132 133 135 136 137 137 138 139 139 139 140 140 139 139 139 138 138 137 135 133 130 128 125 121 118 114 111 108 104 101 98 95 92 90 88 86 84 82 80 79 78 77 76 76 75 75 75 75 75 75
107 108 108 109 109 109 109 109 109 110 110 111 112 113 114 115 117 118 119 120 121 122 123 124 124 125 126 126 127 128 129 130 131 132 133 134 135 136 137 138 139 139 140 140 140 140 140 140 139 139 138 137 136 135 133 130 127 125 121 118 115 111 108 105 102 99 96 93 91 89 87 85 83 82 80 79 78 77 76 76 75 75 75 75 75 75
108 109 109 110 111 111 112 112 113 114 115 116 117 118 119 120 121 122 123 123 124 125 125 126 126 127 128 129 130 131 132 133 134 135 136 137 138 139 140 140 140 140 141 140 140 140 140 139 139 138 137 136 134 132 130 127 124 121 118 115 112 109 106 103 100 97 95 93 91 89 87 85 83 81 80 79 78 77 76 76 75 75 75 75 75 75
112 112 113 114 115 115 116 117 117 118 119 120 121 122 123 123 124 124 125 125 126 127 128 128 129 130 131 132 133 134 135 136 137 138 139 139 140 141 141 141 141 141 141 141 140 140 139 139 138 137 135 134 132 130 127 124 121 119 116 113 110 106 104 101 99 96 94 92 90 88 87 85 83 81 80 79 78 77 76 76 76 75 75 75 76 76
116 117 117 118 118 119 120 120 121 122 123 124 125 126 126 126 127 127 128 129 129 130 131 132 133 134 135 136 137 137 138 139 139 140 141 141 142 142 142 142 142 141 141 140 140 139 138 137 136 135 133 131 129 127 124 121 119 116 113 110 107 105 102 100 98 96 94 92 90 88 87 85 83 81 80 79 78 77 77 76 76 76 76 76 76 76
120 120 121 121 122 122 123 124 125 126 127 128 128 129 130 130 130 131 132 132 133 134 135 136 137 138 138 139 139 140 140 141 141 142 142 143 143 143 143 142 142 141 140 139 139 138 137 136 134 133 131 129 126 124 121 119 116 114 111 108 106 103 101 99 97 96 94 92 90 89 87 85 83 82 80 79 78 78 77 77 76 76 76 76 76 76
122 123 124 124 125 126 127 128 129 130 130 131 131 132 133 133 134 135 135 136 136 137 138 138 139 140 141 142 142 142 143 143 143 143 144 144 143 143 142 141 141 140 139 138 138 137 135 134 132 131 129 126 124 121 118 116 114 111 109 106 104 102 100 99 97 96 94 92 91 89 87 86 84 83 81 80 79 78 78 77 77 77 77 77 77 77
125 126 126 127 128 129 130 131 132 133 133 134 134 134 135 135 136 137 137 138 139 140 140 140 141 142 143 144 144 144 144 144 145 144 144 144 143 142 141 140 139 139 138 137 136 135 133 132 130 128 126 123 121 118 116 114 112 109 107 105 103 101 100 98 97 96 94 93 91 89 88 86 85 84 82 81 80 80 79 79 78 78 78 78 78 78
127 128 129 130 131 132 132 133 134 134 135 135 136 136 137 137 138 138 139 140 140 141 142 142 143 143 144 144 145 146 145 145 145 145 144 143 142 141 140 139 138 138 137 136 135 133 132 130 128 126 123 121 118 116 114 112 110 108 106 104 102 101 99 98 97 96 94 93 91 90 88 87 86 85 84 83 82 81 80 80 80 80 80 80 80 80
130 131 132 132 133 134 134 135 135 136 136 137 137 138 139 140 140 140 140 140 141 142 143 144 145 145 145 145 145 146 145 145 144 143 143 142 141 140 139 138 138 137 136 134 133 131 130 127 125 123 121 118 116 114 112 110 108 107 105 103 102 100 99 98 97 96 94 93 91 90 89 88 87 86 85 84 83 82 82 82 81 81 81 81 81 81
133 134 134 135 135 136 136 137 137 138 138 139 139 140 140 141 141 141 141 142 142 143 144 144 145 146 146 146 145 145 144 144 143 142 141 140 139 139 138 137 137 136 134 133 131 129 127 125 123 120 118 116 114 112 110 109 107 105 104 102 101 100 99 98 97 95 94 93 92 91 90 89 88 87 86 85 84 84 83 83 82 82 82 82 83 83
136 137 137 138 138 138 139 139 139 140 141 141 142 142 142 142 142 142 142 143 143 144 145 145 145 145 146 146 145 144 143 142 142 141 140 139 139 138 137 136 135 134 133 131 129 127 125 122 120 117 116 114 112 110 109 107 106 104 103 102 101 100 99 98 96 95 94 93 92 91 90 89 88 87 87 86 85 85 84 84 83 83 83 83 84 84
139 139 140 140 140 141 141 142 142 142 143 143 143 143 143 143 143 143 143 143 144 145 145 145 145 145 145 145 144 143 142 141 140 140 139 139 138 138 137 135 134 133 132 129 127 124 122 120 117 115 113 112 110 109 107 106 105 104 102 101 100 99 98 97 96 95 94 93 93 92 91 90 89 88 87 86 86 85 85 85 84 84 84 84 85 85
142 142 142 142 143 144 144 144 144 144 144 145 145 144 144 144 144 144 144 144 145 145 145 145 144 144 145 145 144 143 141 140 139 139 138 138 138 137 136 134 132 131 130 127 124 122 119 117 115 113 111 110 109 107 106 105 104 103 102 101 100 99 98 97 96 96 95 94 93 92 91 90 89 88 88 87 86 86 86 85 85 85 85 85 85 86
144 144 144 145 145 146 146 146 146 146 146 146 146 145 145 145 145 145 145 145 145 145 145 145 144 143 143 143 144 143 141 139 138 138 137 137 136 136 135 132 130 129 127 125 122 119 117 115 113 111 110 109 107 106 105 104 103 103 102 101 100 99 98 97 96 96 95 94 93 92 91 90 89 89 88 87 87 87 86 86 86 86 85 86 86 86
146 146 146 146 147 147 147 147 147 147 146 146 146 146 146 146 146 146 146 146 145 145 145 144 143 142 141 141 141 142 141 139 137 137 136 136 135 135 133 131 128 126 124 122 119 117 115 113 111 110 109 108 107 106 105 104 103 102 101 101 100 99 98 97 97 96 95 94 93 92 91 90 90 89 88 88 87 87 87 86 86 86 86 86 86 87
147 147 147 147 147 148 148 147 147 147 147 146 146 146 146 146 146 146 146 145 145 144 143 143 142 142 141 140 140 141 140 138 136 135 135 134 133 132 131 128 126 123 121 119 117 115 113 112 110 109 108 107 107 106 105 104 103 102 101 101 100 99 98 98 97 96 95 94 93 92 91 90 90 89 88 88 88 88 87 87 87 86 86 86 87 87
148 148 148 148 148 147 147 148 148 147 147 147 146 146 146 146 146 146 145 145 144 143 143 142 141 141 141 140 139 139 139 137 135 134 133 132 131 129 128 125 122 120 118 117 115 113 112 111 110 109 108 108 107 106 105 104 103 102 101 101 100 99 98 97 97 96 95 94 93 92 91 90 90 89 89 88 88 88 87 87 87 87 87 87 87 87
148 148 148 148 148 147 147 147 148 148 147 146 146 146 145 145 145 145 144 144 143 142 142 141 141 141 140 139 138 138 137 135 133 132 131 130 128 126 124 122 119 117 116 115 114 112 111 110 110 109 109 108 107 106 105 104 104 103 102 101 100 99 98 98 97 96 95 94 93 92 91 90 90 89 89 88 88 88 87 87 87 87 87 87 87 87
148 148 148 148 148 147 147 147 147 147 147 146 145 144 145 144 144 143 143 143 142 141 141 141 140 140 139 137 136 136 135 133 131 129 128 126 124 123 121 119 117 115 114 113 113 112 111 110 110 109 109 108 107 106 106 105 104 103 103 102 101 100 99 98 97 96 95 93 92 91 91 90 89 89 89 88 88 88 87 87 87 86 86 86 87 87
148 148 148 148 148 147 147 147 147 146 146 145 144 144 144 143 143 142 142 142 141 141 140 140 139 139 138 136 135 134 133 131 129 127 124 122 121 120 118 116 114 114 113 113 112 111 111 110 110 109 109 108 107 107 106 105 105 104 103 102 101 100 99 98 97 96 94 93 92 91 90 90 89 89 88 88 88 87 87 87 86 86 86 86 86 86
148 148 148 148 147 147 146 146 146 145 145 144 144 143 143 143 142 142 141 141 140 140 139 139 138 137 136 135 133 132 130 129 126 123 121 119 118 117 115 114 113 112 112 112 111 111 110 110 110 109 109 108 108 107 107 106 105 105 104 103 102 101 99 98 97 95 94 93 92 91 90 90 89 89 88 88 87 87 86 86 86 86 86 86 86 86
147 147 147 147 147 146 146 145 145 144 144 143 143 143 142 142 142 141 141 140 139 138 138 137 135 134 134 132 130 129 127 125 123 119 117 116 115 114 113 112 111 111 111 111 111 110 110 110 109 109 109 108 108 108 107 107 106 105 104 103 102 101 100 98 97 95 94 93 92 91 90 90 89 89 88 88 87 86 86 86 85 85 85 85 85 85
147 147 147 146 146 146 145 144 144 144 143 143 142 142 142 141 140 140 139 138 138 137 136 134 133 132 131 129 127 125 123 121 119 116 114 113 112 112 112 111 111 110 110 111 111 110 110 110 110 110 109 109 109 108 108 107 106 105 104 103 102 101 99 98 97 95 94 93 92 91 90 90 89 89 88 87 87 86 85 85 85 85 85 85 85 85
147 147 146 146 145 145 144 144 143 143 143 142 142 141 141 140 138 137 137 137 136 135 133 131 130 129 128 125 123 121 119 117 115 113 112 111 111 111 111 111 110 110 110 111 111 110 110 110 110 110 110 109 109 109 108 107 106 105 104 103 102 101 99 98 97 95 94 93 92 91 90 90 89 88 88 87 86 86 85 85 84 84 84 84 84 84
147 146 146 145 145 144 144 143 143 142 142 141 141 140 139 138 136 135 135 135 134 132 130 128 127 125 123 121 119 117 115 113 112 111 111 110 110 110 110 110 110 110 110 111 111 111 111 110 110 110 110 110 110 109 108 107 106 105 104 103 102 100 99 98 96 95 94 93 92 91 90 90 89 88 87 87 86 85 85 84 84 84 83 83 83 83
146 146 145 145 144 144 143 143 142 141 141 140 139 138 137 136 134 133 132 132 130 128 126 124 123 121 119 117 115 114 112 111 111 110 110 109 109 110 110 110 110 110 110 110 111 111 111 111 110 110 110 110 110 109 108 107 106 105 104 102 101 100 98 97 96 95 94 93 92 91 90 89 88 88 87 86 85 85 84 84 83 83 82 82 82 81
145 145 144 144 143 143 142 141 140 140 139 138 136 135 134 133 132 130 129 128 126 123 122 120 119 117 115 114 112 111 111 111 110 110 109 109 109 110 110 110 109 110 110 110 110 110 111 111 111 111 110 110 110 109 108 107 106 105 103 102 101 99 98 96 95 94 93 92 91 91 90 89 88 87 86 85 85 84 83 83 82 82 81 81 80 80
144 144 143 142 142 141 140 139 138 137 136 135 134 132 131 130 128 127 125 123 121 119 118 116 115 114 112 111 110 110 110 110 110 110 109 109 109 109 110 109 110 110 110 110 109 109 110 111 112 111 111 110 109 109 108 107 106 104 103 102 100 99 97 96 94 93 92 92 91 90 89 88 87 86 85 85 84 83 83 82 81 80 80 79 79 79
143 142 141 140 139 139 137 136 135 134 133 131 130 129 127 126 124 123 121 119 117 116 114 113 112 111 110 110 109 109 110 110 110 110 109 109 109 110 110 110 110 110 111 110 110 109 109 110 110 111 110 110 109 108 108 107 105 104 102 101 99 98 97 95 94 93 92 91 90 89 88 87 86 85 84 83 83 82 81 81 80 79 78 78 78 77
141 139 138 137 136 135 134 133 132 130 129 127 126 124 123 121 120 118 117 115 114 113 112 111 110 110 110 110 110 110 110 110 110 110 110 109 109 110 110 110 110 111 111 111 111 110 109 109 109 109 109 109 108 107 107 106 105 103 102 100 99 97 96 95 93 92 91 90 89 88 87 86 85 84 83 82 81 81 80 79 78 77 77 76 76 76
138 136 135 134 133 131 130 129 128 126 125 123 122 120 119 118 116 115 114 113 112 111 110 110 109 109 110 110 110 110 110 111 111 110 110 110 109 110 110 110 110 111 111 111 111 111 110 109 109 108 108 108 108 107 106 105 104 103 101 99 98 97 95 94 93 92 91 90 89 87 86 85 84 83 82 81 80 79 78 77 77 76 75 75 74 74
133 132 131 130 128 127 126 125 124 122 121 120 118 117 116 114 113 112 112 111 111 110 110 110 110 110 110 110 110 111 111 111 111 111 111 110 110 110 110 110 111 111 111 111 111 111 110 110 109 109 108 107 107 106 105 104 103 101 100 98 97 96 94 93 92 91 90 89 88 87 86 84 83 82 81 80 79 78 77 76 75 74 74 73 72 72
129 127 126 125 124 123 122 121 120 119 118 117 116 114 113 112 112 111 111 111 111 111 111 111 111 111 111 111 111 111 112 112 112 112 112 111 111 111 110 111 111 111 111 111 111 111 110 110 109 109 108 107 106 105 104 103 101 100 98 97 96 94 93 92 91 90 89 88 87 86 85 83 82 81 80 79 78 77 76 76 74 73 72 71 70 69
124 123 122 121 120 119 118 118 117 116 115 114 113 112 112 111 111 111 111 111 111 111 111 112 112 112 112 112 112 112 113 113 113 113 113 112 112 111 111 111 112 112 111 110 110 110 110 109 109 109 108 107 105 104 102 101 100 98 97 96 94 93 92 91 90 89 88 87 86 85 84 83 82 81 80 79 78 77 76 75 74 73 72 71 69 68
119 119 118 118 117 117 116 116 115 114 113 113 112 111 111 111 111 111 111 111 112 112 112 112 113 113 113 113 114 114 114 114 114 114 114 114 113 112 111 111 112 112 111 110 109 109 109 109 109 108 108 107 105 102 101 99 98 97 96 94 93 92 91 90 88 87 87 86 85 83 82 81 80 80 79 78 77 77 76 75 74 72 71 70 69 67
117 116 116 116 115 115 115 114 114 113 112 112 112 111 111 111 111 112 112 112 112 113 113 113 113 114 114 114 114 114 114 114 114 114 114 114 114 113 112 111 111 111 111 110 109 108 108 108 108 107 107 105 103 101 99 97 96 95 94 93 91 90 89 88 87 86 85 84 83 82 81 80 79 78 78 77 77 76 76 75 73 72 71 69 68 67
115 115 115 115 115 114 114 113 113 113 112 112 112 112 112 112 112 113 113 113 113 113 114 114 114 114 114 115 115 115 115 115 115 115 115 114 114 113 113 112 111 111 110 110 109 108 108 107 107 106 105 103 101 99 97 96 95 94 92 91 90 89 88 86 85 84 83 82 81 81 80 79 78 77 77 76 76 75 75 74 73 72 70 69 68 67
115 115 115 115 115 114 114 113 113 113 113 113 113 113 113 113 113 114 114 114 114 115 115 115 115 115 115 115 115 115 115 115 115 115 115 115 114 114 113 112 112 111 110 109 108 108 107 107 106 105 103 101 99 97 96 95 93 92 90 89 88 87 86 85 84 83 82 81 80 79 78 77 77 76 76 75 75 74 74 73 72 71 70 68 67 66
115 115 115 115 115 114 114 113 113 113 113 114 114 114 114 114 114 114 115 115 116 116 116 116 116 115 115 116 116 116 116 116 115 115 115 115 114 114 113 112 111 110 109 108 108 107 107 106 104 102 100 98 96 95 94 93 92 90 88 87 87 86 85 83 82 81 80 79 78 77 77 76 76 75 75 75 74 74 73 72 71 70 69 68 66 65
116 116 116 116 115 114 114 114 114 114 114 114 115 115 115 115 115 115 116 116 116 117 117 116 116 116 115 116 116 116 117 116 116 115 115 115 114 114 113 112 111 110 109 107 107 106 105 104 102 100 98 96 94 93 93 91 90 88 87 86 84 84 84 82 80 79 78 77 77 76 75 75 75 74 74 74 73 73 72 71 70 69 68 67 66 65
116 116 116 116 115 115 115 114 115 115 115 115 115 115 116 116 116 116 116 117 117 117 117 116 116 116 115 115 116 116 116 116 116 116 115 114 114 113 112 111 110 109 108 107 105 104 103 101 99 97 95 94 93 92 91 89 88 87 85 84 83 82 82 80 79 78 77 76 75 75 74 74 74 74 73 73 72 71 70 70 69 68 67 66 65 64
117 117 117 116 116 115 115 115 115 115 116 116 116 116 116 116 116 117 117 117 117 117 117 116 116 115 115 115 116 116 116 116 116 116 115 114 113 112 111 110 109 108 107 105 103 102 100 98 97 95 93 92 91 90 88 87 86 85 83 82 81 80 79 78 77 76 76 75 74 74 73 73 73 73 72 71 70 70 69 68 68 67 66 65 64 63
117 117 117 117 116 116 116 116 116 116 116 116 117 117 117 117 117 117 117 117 116 116 116 116 115 115 114 115 115 115 115 115 115 115 114 113 112 112 111 109 108 106 105 103 101 99 97 95 94 93 92 90 89 88 86 85 84 83 82 80 79 78 77 76 75 74 74 74 73 73 72 72 71 71 70 69 69 68 68 67 67 67 66 65 63 62
117 117 117 117 116 116 116 116 116 116 116 117 117 117 117 117 117 116 116 116 116 116 116 115 115 114 114 114 115 115 114 114 114 113 113 112 111 110 109 108 106 104 101 99 97 95 94 93 92 91 90 89 87 86 84 83 82 81 80 78 77 76 76 75 73 72 72 72 72 72 71 70 70 69 68 67 67 67 67 66 66 66 65 64 63 61
117 117 117 117 117 116 116 116 116 116 117 117 118 118 117 117 116 116 116 116 116 115 115 115 114 114 114 114 114 114 113 113 112 111 111 110 109 108 106 104 102 100 98 96 94 93 92 91 90 89 88 86 85 84 83 81 80 79 78 77 76 75 74 73 72 71 71 71 71 70 69 68 67 66 65 65 65 65 65 65 65 65 64 63 62 60
117 117 117 117 116 116 116 116 116 117 117 117 117 117 117 117 116 115 115 115 115 115 114 114 113 113 113 113 113 113 112 111 111 110 109 108 107 105 103 101 99 97 95 93 92 90 89 88 87 86 85 84 83 82 81 79 78 77 76 75 74 73 72 72 71 70 70 70 69 68 67 66 65 64 63 63 64 64 64 65 64 64 63 62 61 60
117 116 116 116 116 116 116 116 116 116 117 117 117 116 116 116 116 115 115 115 114 114 113 113 112 112 112 112 112 112 111 110 109 108 107 105 104 101 99 97 95 93 92 90 89 88 87 86 85 84 82 81 80 79 79 78 76 75 74 73 72 71 71 70 70 69 69 68 67 65 64 63 62 62 62 62 63 63 63 64 64 63 62 61 60 59
116 116 116 116 116 116 116 116 116 116 116 116 116 116 116 116 115 115 115 114 113 113 112 112 112 111 111 111 111 110 109 108 106 105 104 102 100 98 96 94 92 90 89 88 87 86 85 84 83 82 80 78 77 76 76 76 75 74 73 72 70 69 69 69 68 67 66 65 64 63 62 61 61 60 60 61 61 62 62 62 63 62 61 60 59 58
Wind_Direction
271 273 273 274 276 277 278 280 281 282 283 284 285 286 286 287 287 288 288 289 289 289 290 290 290 291 291 291 291 292 292 292 293 293 293 294 294 295 295 295 296 296 297 297 298 299 299 300 301 302 302 303 304 305 305 306 306 307 307 307 307 307 307 307 307 306 306 305 305 304 304 304 304 304 304 304 304 304 304 303 303 303 303 302 302 301
273 274 275 276 277 278 279 281 282 282 283 284 284 285 286 286 287 287 288 288 288 289 289 289 290 290 290 290 291 291 291 292 292 293 293 294 294 295 295 295 296 296 297 298 298 299 300 301 301 302 303 304 304 305 306 306 306 307 307 307 307 307 306 306 306 305 305 304 304 304 304 304 304 304 304 304 304 304 304 304 303 303 303 302 302 301
273 274 275 276 277 278 279 280 281 281 282 283 283 284 285 285 286 286 286 287 287 288 288 288 289 289 289 290 290 291 291 291 292 292 293 293 294 295 295 296 296 297 298 298 299 300 301 301 302 303 304 304 305 305 306 306 306 306 306 306 306 306 306 305 305 305 304 304 304 304 304 304 304 304 304 304 304 304 304 304 303 303 303 302 302 301
272 273 274 275 276 277 277 278 279 279 280 281 282 282 283 283 284 285 285 286 286 287 287 288 288 288 289 289 290 290 291 291 292 292 293 293 294 295 296 296 297 298 298 299 300 301 301 302 303 303 304 304 305 305 305 305 306 306 306 305 305 305 305 304 304 304 304 304 304 304 304 304 304 304 304 304 304 304 304 304 304 303 303 302 302 301
270 271 272 273 274 275 275 276 277 278 279 279 280 281 282 282 283 284 284 285 286 286 287 287 288 288 289 289 290 290 291 291 292 292 293 294 295 296 296 297 298 299 299 300 301 301 302 302 303 303 304 304 305 305 305 305 305 305 305 305 304 304 304 304 303 303 303 303 303 304 304 304 304 304 304 304 304 304 304 304 303 303 302 302 301 301
269 270 271 272 273 274 274 275 276 277 278 279 280 281 281 282 283 283 284 285 285 286 286 287 288 288 289 289 290 290 291 292 293 293 294 295 296 296 297 298 298 299 300 300 301 301 302 303 303 303 304 304 304 304 304 304 304 304 304 304 304 303 303 303 303 303 303 303 303 303 303 303 303 303 303 304 304 304 303 303 303 303 302 302 301 301
269 270 271 272 273 273 274 275 276 277 278 279 280 281 282 282 283 283 284 285 285 286 287 288 288 289 289 290 291 291 292 293 293 294 295 296 296 297 298 298 299 299 300 300 301 301 302 302 303 303 303 304 304 304 304 303 303 303 303 303 303 302 302 302 302 302 302 303 303 303 302 303 303 303 303 303 303 303 303 303 302 302 302 302 301 301
269 270 271 272 273 274 275 276 277 278 279 280 280 281 282 283 283 284 285 285 286 287 288 288 289 290 290 291 292 292 293 294 294 295 295 296 297 297 298 298 299 299 300 300 301 301 302 302 303 303 303 303 303 303 303 303 303 302 302 302 302 302 302 302 302 302 302 302 302 302 302 302 302 302 302 302 302 302 302 302 302 301 301 301 301 301
269 271 272 273 274 275 276 277 278 278 279 280 281 282 283 283 284 285 286 286 287 288 288 289 290 290 291 291 292 293 293 294 294 295 296 296 297 297 298 298 299 299 300 300 301 301 302 302 302 302 302 302 302 302 302 302 302 301 301 301 301 301 301 301 301 301 301 301 301 301 301 301 301 301 301 301 301 301 301 301 301 301 301 301 301 301
270 272 273 274 275 276 277 278 279 279 280 281 282 283 283 284 285 286 286 287 288 288 289 289 290 290 291 292 292 293 293 294 295 295 296 296 297 297 298 298 299 299 300 300 301 301 301 301 302 302 302 302 301 301 301 301 301 301 300 300 300 300 300 301 301 301 301 301 301 301 301 300 300 300 300 300 300 300 300 300 300 300 300 300 300 300
272 273 274 275 276 277 278 279 280 280 281 282 283 283 284 285 285 286 287 288 288 288 289 289 290 291 291 292 292 293 294 294 295 295 296 296 297 297 298 298 299 299 300 300 300 301 301 301 301 301 301 301 301 300 300 300 300 300 300 300 300 300 300 300 300 300 300 300 300 300 300 300 300 300 300 300 300 300 300 300 300 299 300 300 300 300
273 274 275 276 277 278 279 280 280 281 282 283 283 284 285 285 286 286 287 288 288 289 289 290 290 291 291 292 293 293 294 294 295 295 296 296 297 297 298 298 299 299 299 300 300 300 300 300 300 300 300 300 300 299 299 299 299 299 299 299 299 299 299 300 300 300 300 300 299 299 299 299 299 299 299 299 299 299 299 299 299 299 299 299 299 300
274 275 276 277 278 279 279 280 281 281 282 283 283 284 285 285 286 287 287 288 288 289 289 290 290 291 291 292 293 293 294 294 295 295 296 296 297 297 298 298 298 299 299 299 299 300 300 300 299 299 299 299 299 299 298 298 298 298 298 298 299 299 299 299 299 299 299 299 299 299 299 299 299 299 299 299 299 299 299 299 299 299 299 299 299 299
274 275 276 277 278 279 279 280 281 281 282 283 283 284 285 285 286 287 287 288 288 289 289 290 291 291 292 292 293 293 294 294 295 295 296 296 297 297 298 298 298 298 299 299 299 299 299 299 298 298 298 298 298 298 298 298 298 298 298 298 298 298 298 299 299 299 299 299 298 298 298 298 298 298 299 299 299 299 299 299 299 299 299 299 299 299
275 275 276 277 278 278 279 280 281 281 282 283 283 284 285 286 286 287 288 288 289 289 290 290 291 291 292 292 293 293 294 294 294 295 296 296 296 297 297 298 298 298 298 298 298 298 298 298 298 297 297 297 297 297 297 297 297 297 297 297 298 298 298 298 298 298 298 298 298 298 298 298 298 298 298 298 298 298 298 298 298 299 299 299 299 299
275 275 276 277 278 278 279 280 280 281 282 283 283 284 285 286 286 287 288 288 289 289 290 290 291 291 292 292 293 293 293 294 294 295 295 296 296 297 297 297 297 297 297 297 297 297 297 297 297 296 296 296 296 296 296 296 296 296 297 297 297 297 297 297 297 297 297 297 298 298 298 298 298 298 298 298 298 298 298 298 298 298 298 299 299 299
275 275 276 277 278 278 279 280 281 281 282 283 284 284 285 286 286 287 288 288 289 289 290 290 291 291 292 292 292 293 293 294 294 295 295 296 296 297 297 297 297 297 297 297 297 296 296 296 296 296 295 295 295 295 295 295 296 296 296 296 296 296 296 296 296 297 297 297 297 297 297 297 297 297 297 297 297 297 297 298 298 298 298 298 298 298
275 276 276 277 278 278 279 280 281 281 282 283 284 284 285 286 286 287 287 288 288 289 290 290 291 291 291 292 292 293 293 294 294 295 295 296 296 296 296 296 296 296 296 296 296 296 295 295 295 295 295 295 295 295 295 295 295 295 295 295 295 295 295 296 296 296 296 297 297 297 297 297 297 297 297 297 297 297 297 297 297 297 297 297 297 297
275 276 276 277 278 279 279 280 281 282 282 283 284 284 285 286 286 287 287 288 288 289 289 290 290 291 291 292 292 293 293 294 294 295 295 295 295 296 296 296 295 295 295 295 295 295 295 294 294 294 294 294 294 294 294 294 294 294 294 294 294 294 295 295 295 295 296 296 296 296 297 297 297 297 296 296 296 296 296 296 296 296 296 296 296 296
275 276 277 277 278 279 280 280 281 281 282 283 284 284 285 285 286 286 287 288 288 289 289 290 290 291 291 292 292 293 293 294 294 294 295 295 295 295 295 295 294 294 294 294 294 294 294 294 294 294 293 294 294 294 294 294 294 293 293 293 293 294 294 294 294 295 295 295 296 296 296 296 296 296 296 296 295 295 295 296 296 296 296 296 296 296
276 276 277 277 278 279 280 280 281 282 282 283 283 284 285 285 286 286 287 287 288 289 289 290 290 290 291 292 292 293 293 293 294 294 294 294 294 294 294 294 294 294 294 294 294 294 293 293 293 293 293 293 293 293 293 293 293 293 293 293 293 293 293 293 294 294 294 294 295 295 295 295 295 295 295 295 295 295 295 295 295 295 295 295 295 295
276 276 277 278 278 279 280 280 281 282 282 283 283 284 284 285 286 286 287 287 288 288 289 289 290 290 291 291 292 292 293 293 293 293 293 293 293 293 293 293 293 293 293 293 293 293 293 293 293 293 293 293 293 293 293 293 293 292 292 292 292 292 292 293 293 293 293 294 294 294 295 295 295 295 295 294 294 294 294 294 294 294 294 294 294 294
276 277 277 278 278 279 280 280 281 282 282 283 283 284 284 285 285 286 287 287 288 288 289 289 290 290 291 291 291 292 292 292 293 293 292 292 292 292 292 292 292 292 292 293 293 292 292 292 292 293 293 293 293 293 293 293 292 292 292 292 292 292 292 292 292 292 293 293 293 294 294 294 294 294 294 294 294 294 294 294 294 293 293 294 294 294
276 277 277 278 279 279 280 280 281 282 282 283 283 284 284 285 285 286 286 287 287 288 288 289 289 290 290 291 291 291 292 292 292 292 291 291 291 291 292 292 292 292 292 292 292 292 292 292 292 292 293 293 293 293 292 292 292 292 292 292 292 292 292 292 292 292 292 292 292 293 293 293 293 293 293 293 293 293 293 293 293 293 293 293 293 294
276 277 278 278 279 279 280 280 281 281 282 283 283 284 284 285 285 286 286 287 287 288 288 289 289 289 290 290 291 291 291 291 291 291 290 290 291 291 291 291 291 291 291 291 291 291 291 292 292 292 292 292 292 292 292 292 292 292 292 292 291 291 291 291 291 291 291 292 292 292 292 293 293 293 293 293 293 293 292 292 292 292 293 293 293 294
276 277 278 278 279 279 280 280 281 281 282 282 283 283 284 284 285 285 286 286 287 287 288 288 289 289 289 290 290 290 290 290 290 290 290 290 290 290 290 291 291 291 291 291 291 291 291 291 292 292 292 292 292 292 292 292 292 292 292 292 291 291 291 291 291 291 291 291 291 292 292 292 293 293 293 293 292 292 292 292 292 292 292 293 293 293
276 277 278 278 279 279 280 280 281 281 281 282 282 283 283 284 285 285 286 286 286 287 287 288 288 288 289 289 289 289 289 289 289 289 289 289 289 290 290 290 290 290 290 290 290 291 291 291 291 292 292 292 292 292 292 292 292 292 292 292 292 291 291 291 291 291 291 291 291 291 292 292 292 293 293 292 292 292 292 292 292 292 292 293 293 293
276 277 277 278 278 279 279 280 280 281 281 282 282 283 283 284 284 285 285 286 286 286 287 287 287 288 288 288 288 288 288 288 288 288 289 289 289 289 289 290 290 290 290 290 290 290 291 291 291 292 292 292 292 292 292 292 292 292 292 292 292 292 291 291 291 291 291 291 291 291 292 292 292 292 292 292 292 292 292 292 292 292 292 292 293 293
276 277 277 278 278 278 279 279 280 280 281 281 282 282 283 283 284 284 285 285 286 286 286 286 287 287 287 287 287 287 287 287 287 288 288 288 289 289 289 289 289 289 290 290 290 290 291 291 291 292 292 292 292 292 292 292 292 292 292 292 292 292 291 291 291 291 291 291 291 291 291 292 292 292 292 292 292 291 291 291 291 292 292 292 293 293
276 276 277 277 278 278 279 279 280 280 281 281 282 282 282 283 283 284 284 285 285 285 285 285 286 286 286 286 286 286 286 287 287 288 288 288 288 288 289 289 289 289 289 289 290 290 291 291 291 292 292 292 292 292 292 292 292 292 292 292 292 292 292 291 291 291 291 291 291 291 291 291 291 291 291 291 291 291 291 291 291 291 292 292 293 293
275 276 276 277 277 278 278 279 279 280 280 281 281 282 282 283 283 283 284 284 284 284 284 285 285 285 285 285 285 286 286 286 287 287 288 288 288 288 288 288 288 289 289 289 289 290 290 291 291 291 292 291 291 291 291 292 292 292 292 292 292 292 292 291 291 291 291 291 290 291 291 291 291 291 291 291 291 291 291 291 291 291 292 292 293 293
275 276 276 276 277 277 278 278 279 279 280 280 281 281 281 282 282 282 283 283 283 283 283 284 284 284 284 284 285 285 285 286 286 287 287 287 288 288 288 288 288 288 288 289 289 289 289 290 290 291 291 291 291 291 291 292 292 292 292 292 292 292 292 291 291 291 290 290 290 290 290 290 290 290 290 290 290 290 290 290 291 291 292 292 293 293
275 275 276 276 276 277 277 278 278 279 279 279 280 280 281 281 281 281 282 282 282 282 283 283 283 283 284 284 284 284 285 285 286 286 287 287 287 287 288 288 288 288 288 288 288 289 289 289 290 290 290 290 290 291 291 291 291 292 292 292 292 292 292 291 291 291 291 290 290 290 290 290 290 290 290 290 290 290 290 290 291 291 292 292 292 293
274 275 275 276 276 276 277 277 278 278 278 279 279 279 280 280 280 280 281 281 281 281 282 282 282 283 283 283 284 284 285 285 286 286 286 287 287 287 287 288 288 288 288 288 288 289 289 289 289 289 289 290 290 290 291 291 291 291 291 291 291 292 292 291 291 291 291 291 290 290 290 290 290 290 290 290 290 290 290 290 291 291 291 292 292 292
274 274 275 275 275 276 276 277 277 277 278 278 278 279 279 279 279 280 280 280 280 281 281 281 282 282 282 283 283 284 284 285 285 286 286 286 287 287 287 287 288 288 288 288 288 289 289 289 289 289 289 289 290 290 291 291 291 291 291 291 291 291 291 291 291 291 291 291 291 291 291 291 291 290 290 290 290 291 291 291 291 291 291 291 291 291
273 274 274 274 275 275 276 276 276 277 277 277 278 278 278 278 279 279 279 279 280 280 281 281 281 282 282 282 283 283 284 285 285 285 286 286 287 287 287 287 288 288 288 288 289 289 289 289 289 289 289 289 289 290 290 291 291 291 291 291 291 291 291 291 291 291 291 291 291 291 291 291 291 291 291 291 291 291 291 291 291 291 291 291 290 290
273 273 273 274 274 274 275 275 276 276 277 277 277 277 278 278 278 278 279 279 279 280 280 281 281 282 282 282 283 283 284 284 285 285 286 286 287 287 287 287 288 288 288 288 288 289 289 289 289 289 289 289 290 290 290 291 291 291 290 291 291 291 291 291 291 291 291 290 291 291 291 291 291 291 291 291 291 292 292 292 292 292 291 291 290 289
272 272 273 273 273 274 274 275 275 276 276 276 277 277 277 277 277 278 278 279 279 280 280 281 281 282 282 282 283 283 284 284 285 285 286 286 286 287 287 287 288 288 288 288 288 289 289 289 289 289 289 290 290 290 290 290 290 290 290 290 290 290 290 290 290 290 290 290 290 290 290 291 291 291 291 291 292 292 292 292 292 292 291 291 290 289
271 272 272 272 273 273 274 274 275 275 275 276 276 276 276 277 277 277 278 278 279 280 280 281 281 282 282 282 283 283 284 284 285 285 286 286 286 287 287 287 287 288 288 288 288 288 288 288 289 289 289 290 290 290 290 290 290 290 290 290 290 290 290 290 290 290 290 290 290 290 290 290 291 291 291 292 292 292 292 292 292 292 291 290 289 288
271 271 271 272 272 273 273 274 274 275 275 275 275 276 276 276 276 277 277 278 279 279 280 280 281 281 282 282 283 283 284 284 285 285 285 286 286 286 286 287 287 287 288 288 288 288 288 288 288 289 289 290 290 290 290 290 289 289 289 290 289 289 289 289 289 289 289 290 290 290 290 290 291 291 291 292 292 292 292 292 292 291 290 290 289 288
270 270 271 271 272 272 273 273 274 274 274 275 275 275 275 276 276 277 277 278 279 279 280 280 281 281 282 282 283 283 284 284 284 285 285 285 286 286 286 287 287 287 288 288 288 288 288 288 288 289 289 290 290 290 289 289 289 289 289 289 289 289 289 289 289 289 289 289 289 290 290 290 291 291 292 292 292 292 292 292 291 290 290 289 288 288
269 270 270 271 271 272 272 273 273 274 274 274 274 275 275 275 276 277 277 278 278 279 279 280 280 281 282 282 282 283 283 284 284 284 285 285 285 286 286 286 287 287 287 287 287 287 288 288 288 288 289 289 289 289 289 289 289 289 288 288 288 288 288 288 288 289 289 289 289 289 290 290 291 291 292 292 292 292 291 291 290 289 288 288 287 287
269 269 270 270 271 271 272 272 273 273 273 274 274 274 275 275 276 276 277 278 278 278 279 279 280 281 281 282 282 283 283 283 284 284 285 285 285 286 286 286 287 287 287 287 287 287 287 288 288 288 289 289 289 289 288 288 288 288 288 288 288 288 288 288 288 288 289 289 289 290 290 291 291 292 292 292 291 291 290 289 288 288 287 287 287 287
268 269 269 270 270 271 271 272 272 272 273 273 274 274 275 275 276 276 277 277 278 278 279 279 280 280 281 282 282 282 283 283 283 284 284 285 285 285 286 286 287 287 287 287 287 287 287 287 288 288 288 288 288 288 288 288 288 287 287 287 287 287 287 288 288 288 289 289 289 290 290 291 291 291 291 291 290 290 289 288 287 287 287 287 287 287
268 268 269 269 270 270 271 271 271 272 272 273 274 274 275 275 276 276 277 277 278 278 278 279 280 280 281 281 282 282 282 283 283 284 284 284 285 285 286 286 287 287 287 287 287 287 287 287 287 288 288 288 288 288 287 287 287 287 287 287 287 287 287 287 288 288 289 289 290 290 290 291 291 291 290 290 289 288 288 287 287 286 286 287 287 288
267 268 268 269 269 269 270 270 271 272 272 273 273 274 275 275 276 276 277 277 278 278 279 279 280 280 280 281 281 282 282 283 283 284 284 285 285 285 286 286 286 287 287 287 287 287 287 287 287 288 288 288 287 287 287 287 286 286 286 287 287 287 287 287 287 288 289 289 290 290 290 290 290 290 289 289 288 287 287 286 286 286 287 287 288 289
266 267 267 268 268 269 269 270 271 271 272 273 273 274 274 275 275 276 277 277 278 278 279 279 279 280 280 281 281 281 282 282 283 283 284 285 285 285 286 286 287 287 287 287 287 287 287 287 287 287 287 287 287 286 286 286 286 286 286 286 286 287 287 287 288 288 289 289 289 290 289 289 289 288 288 287 286 286 286 286 286 286 287 288 289 289
266 266 267 267 268 268 269 270 270 271 272 272 273 274 274 275 275 276 277 277 278 278 279 279 280 280 280 280 281 281 282 282 283 283 284 284 285 285 286 286 287 287 287 287 287 287 286 286 286 286 286 286 286 286 286 286 286 286 286 286 286 286 287 287 288 289 289 289 289 288 288 288 287 287 286 286 285 285 285 285 286 286 287 288 289 290
265 266 266 267 268 268 269 269 270 271 271 272 273 273 274 275 275 276 276 277 278 278 279 279 280 280 280 280 281 281 282 283 283 283 284 284 285 285 286 286 287 287 287 286 286 286 286 286 286 285 285 285 285 285 285 285 285 285 285 285 286 286 287 288 288 288 288 288 288 287 287 286 286 285 285 285 284 285 285 286 286 287 288 289 290 291
265 265 266 267 267 268 269 269 270 271 271 272 273 273 274 275 275 276 276 277 278 278 279 279 279 280 280 281 281 282 282 283 283 283 284 284 285 285 286 286 286 286 286 286 285 285 285 285 285 284 284 284 284 284 284 284 285 285 285 285 286 287 287 288 288 288 287 287 286 286 285 285 284 284 284 284 284 285 286 286 287 288 289 290 290 291
264 265 266 266 267 268 269 269 270 271 271 272 273 273 274 275 275 276 276 277 278 278 279 279 279 280 280 281 281 282 282 282 283 283 284 284 285 285 285 285 285 285 285 285 285 285 284 284 284 284 283 283 283 284 284 284 284 284 285 285 286 286 287 287 287 286 286 286 285 285 284 284 284 283 284 284 285 285 286 287 288 289 290 290 291 291
Height
10592 10591 10591 10592 10591 10590 10589 10588 10588 10588 10587 10585 10584 10584 10583 10582 10580 10579 10578 10578 10577 10576 10575 10574 10573 10572 10571 10570 10569 10568 10567 10565 10564 10562 10560 10559 10557 10554 10552 10550 10549 10546 10544 10542 10540 10538 10535 10533 10530 10527 10525 10522 10519 10517 10514 10510 10508 10505 10502 10499 10497 10494 10492 10489 10487 10484 10482 10479 10477 10474 10471 10469 10466 10464 10462 10459 10457 10455 10452 10450 10449 10447 10445 10443 10441 10440
10586 10585 10584 10584 10584 10584 10582 10580 10580 10581 10580 10579 10577 10576 10576 10575 10574 10573 10572 10572 10571 10570 10569 10569 10568 10567 10565 10564 10563 10562 10560 10559 10557 10555 10554 10552 10550 10548 10545 10544 10542 10540 10537 10535 10533 10531 10529 10526 10523 10520 10517 10515 10512 10509 10506 10504 10500 10498 10495 10493 10490 10488 10485 10483 10480 10479 10476 10474 10471 10469 10466 10464 10461 10459 10457 10454 10452 10450 10448 10445 10444 10441 10439 10438 10436 10435
10579 10579 10577 10577 10577 10577 10576 10574 10574 10574 10574 10573 10572 10571 10570 10570 10569 10568 10567 10567 10566 10565 10564 10563 10562 10561 10560 10558 10557 10555 10554 10552 10550 10549 10547 10545 10543 10541 10539 10537 10535 10533 10531 10529 10526 10524 10521 10519 10516 10513 10510 10507 10504 10502 10499 10496 10494 10491 10489 10486 10484 10482 10479 10477 10475 10472 10470 10468 10466 10464 10461 10459 10457 10454 10452 10449 10447 10445 10443 10440 10439 10437 10435 10433 10431 10430
10574 10573 10572 10570 10570 10571 10570 10569 10569 10569 10568 10567 10567 10566 10565 10565 10564 10563 10562 10561 10560 10559 10557 10556 10555 10555 10554 10552 10550 10548 10547 10545 10544 10542 10540 10538 10537 10534 10532 10530 10528 10526 10524 10522 10519 10517 10514 10511 10509 10505 10503 10500 10497 10494 10492 10489 10487 10484 10482 10479 10477 10475 10473 10471 10469 10467 10465 10463 10460 10459 10456 10454 10452 10449 10447 10444 10442 10440 10438 10435 10434 10432 10430 10428 10426 10425
10567 10567 10565 10564 10564 10564 10562 10562 10562 10562 10561 10560 10560 10560 10559 10559 10557 10556 10555 10554 10554 10552 10551 10550 10549 10548 10547 10545 10544 10542 10540 10539 10537 10535 10534 10532 10530 10528 10525 10524 10521 10519 10517 10514 10512 10509 10507 10504 10501 10499 10495 10493 10490 10487 10485 10482 10480 10477 10475 10473 10471 10469 10467 10465 10463 10461 10459 10457 10455 10453 10451 10449 10447 10444 10442 10440 10437 10435 10433 10431 10429 10427 10425 10424 10422 10420
10559 10559 10559 10557 10557 10555 10555 10554 10554 10554 10554 10554 10553 10552 10552 10552 10551 10550 10549 10548 10547 10545 10544 10543 10542 10541 10540 10539 10537 10535 10534 10532 10530 10529 10527 10525 10523 10520 10519 10516 10514 10512 10510 10507 10505 10502 10500 10497 10494 10492 10489 10486 10483 10480 10478 10475 10473 10470 10469 10467 10465 10463 10461 10459 10457 10455 10454 10452 10450 10448 10446 10444 10442 10439 10437 10435 10433 10430 10429 10427 10424 10422 10420 10419 10417 10415
10551 10551 10551 10551 10550 10549 10548 10547 10547 10547 10547 10547 10546 10545 10545 10545 10545 10544 10543 10542 10540 10539 10538 10536 10535 10534 10532 10532 10530 10529 10527 10525 10523 10522 10520 10518 10516 10514 10512 10509 10507 10505 10503 10500 10498 10495 10493 10490 10487 10485 10482 10479 10477 10474 10472 10469 10467 10464 10462 10460 10459 10457 10455 10453 10451 10450 10448 10446 10444 10442 10440 10439 10437 10435 10432 10430 10428 10426 10424 10422 10420 10418 10415 10414 10412 10409
10545 10544 10544 10544 10544 10543 10542 10540 10540 10540 10541 10541 10540 10539 10537 10537 10537 10537 10535 10535 10534 10533 10531 10529 10527 10525 10524 10524 10522 10522 10520 10518 10516 10514 10512 10510 10509 10507 10504 10502 10500 10498 10495 10494 10491 10489 10486 10483 10480 10478 10475 10473 10470 10467 10465 10463 10460 10459 10456 10454 10452 10450 10449 10447 10445 10444 10442 10440 10439 10437 10435 10434 10432 10430 10428 10425 10424 10421 10419 10417 10415 10413 10411 10409 10407 10404
10539 10538 10537 10536 10536 10537 10536 10535 10533 10532 10534 10535 10534 10532 10530 10530 10530 10529 10528 10527 10527 10526 10524 10523 10520 10518 10516 10515 10514 10514 10513 10511 10509 10507 10505 10504 10502 10499 10497 10495 10493 10491 10489 10486 10484 10482 10479 10477 10474 10471 10469 10466 10464 10461 10459 10457 10454 10452 10450 10449 10447 10445 10443 10441 10439 10437 10436 10434 10433 10431 10430 10428 10427 10425 10422 10420 10419 10417 10414 10412 10410 10408 10406 10404 10401 10399
10532 10532 10532 10530 10530 10530 10530 10530 10528 10525 10525 10527 10527 10526 10524 10524 10524 10524 10522 10520 10519 10517 10517 10515 10514 10512 10510 10508 10506 10505 10505 10504 10502 10500 10498 10497 10495 10493 10490 10489 10486 10484 10482 10479 10477 10475 10472 10470 10467 10465 10462 10460 10457 10455 10452 10450 10449 10446 10444 10442 10440 10439 10437 10435 10434 10432 10430 10429 10427 10425 10424 10422 10421 10419 10417 10415 10414 10412 10409 10407 10405 10403 10400 10398 10395 10394
10525 10525 10525 10525 10524 10523 10523 10523 10522 10520 10519 10519 10519 10518 10517 10516 10517 10518 10517 10515 10512 10509 10509 10507 10506 10504 10503 10502 10500 10499 10497 10496 10495 10493 10491 10489 10487 10485 10484 10481 10479 10477 10475 10472 10470 10468 10465 10463 10460 10458 10455 10453 10451 10449 10446 10444 10442 10440 10439 10437 10435 10433 10431 10429 10427 10425 10424 10422 10421 10420 10418 10417 10415 10414 10412 10410 10408 10406 10404 10402 10400 10397 10395 10392 10390 10387
10519 10519 10519 10518 10517 10517 10515 10515 10514 10513 10512 10512 10512 10511 10510 10509 10509 10510 10510 10509 10506 10503 10501 10500 10499 10496 10495 10494 10494 10492 10490 10489 10487 10485 10484 10482 10480 10478 10476 10474 10472 10470 10468 10466 10464 10461 10459 10457 10454 10452 10449 10447 10444 10442 10440 10438 10436 10434 10432 10430 10429 10427 10425 10423 10421 10419 10418 10416 10415 10414 10412 10411 10409 10407 10406 10404 10402 10400 10399 10396 10394 10391 10389 10387 10384 10381
10512 10512 10512 10512 10510 10509 10508 10507 10507 10505 10505 10504 10504 10504 10504 10503 10502 10502 10502 10501 10499 10496 10494 10494 10492 10490 10487 10486 10486 10485 10484 10482 10479 10478 10476 10475 10474 10472 10470 10468 10465 10463 10461 10459 10457 10455 10452 10450 10448 10445 10442 10440 10438 10436 10434 10432 10430 10428 10426 10424 10422 10420 10419 10417 10415 10414 10412 10410 10409 10407 10406 10405 10403 10402 10400 10398 10396 10394 10392 10390 10388 10385 10383 10380 10378 10375
10505 10505 10504 10504 10503 10502 10500 10500 10500 10499 10497 10497 10497 10497 10497 10497 10495 10495 10494 10493 10491 10489 10487 10486 10485 10483 10480 10479 10479 10478 10477 10475 10472 10470 10469 10467 10466 10464 10462 10461 10459 10456 10454 10453 10451 10449 10446 10444 10442 10439 10436 10434 10432 10430 10428 10425 10424 10422 10420 10418 10416 10414 10412 10410 10409 10407 10406 10404 10403 10402 10400 10399 10397 10395 10394 10392 10390 10388 10386 10384 10382 10379 10377 10374 10372 10369
10498 10498 10498 10497 10495 10494 10493 10493 10492 10492 10491 10490 10489 10490 10490 10489 10489 10487 10487 10485 10484 10481 10479 10478 10477 10475 10474 10472 10471 10471 10470 10468 10465 10463 10461 10460 10458 10457 10455 10454 10452 10449 10447 10445 10444 10442 10440 10438 10436 10434 10430 10428 10426 10424 10422 10420 10418 10416 10414 10412 10410 10408 10406 10405 10403 10401 10400 10399 10397 10396 10394 10393 10391 10390 10388 10386 10384 10382 10380 10377 10375 10373 10370 10368 10365 10362
10490 10490 10490 10490 10488 10487 10485 10485 10485 10485 10484 10483 10482 10482 10483 10482 10481 10479 10478 10477 10475 10474 10472 10471 10470 10469 10466 10464 10463 10462 10462 10461 10459 10456 10453 10452 10450 10449 10447 10446 10444 10441 10439 10438 10437 10435 10434 10432 10429 10427 10424 10422 10420 10418 10416 10414 10412 10410 10408 10406 10404 10402 10400 10399 10397 10395 10394 10392 10391 10390 10388 10387 10385 10384 10382 10380 10378 10376 10374 10371 10369 10367 10364 10362 10359 10356
10484 10484 10483 10482 10481 10480 10479 10478 10478 10478 10477 10477 10476 10475 10475 10474 10474 10472 10470 10469 10467 10466 10465 10464 10462 10461 10460 10457 10455 10454 10453 10454 10452 10449 10446 10444 10443 10442 10440 10438 10436 10434 10432 10430 10430 10429 10427 10425 10423 10420 10418 10416 10414 10412 10410 10409 10406 10404 10402 10400 10398 10396 10394 10392 10390 10389 10388 10387 10385 10384 10382 10380 10379 10377 10375 10374 10372 10369 10367 10365 10363 10360 10358 10355 10353 10350
10477 10476 10475 10475 10474 10473 10472 10472 10471 10471 10470 10470 10469 10469 10468 10467 10465 10464 10463 10462 10460 10459 10457 10456 10455 10454 10452 10451 10449 10447 10445 10445 10444 10442 10439 10437 10435 10434 10432 10430 10429 10426 10425 10424 10422 10422 10420 10419 10416 10414 10412 10410 10408 10406 10404 10402 10400 10398 10396 10394 10392 10390 10388 10386 10385 10383 10382 10380 10379 10377 10375 10374 10372 10371 10369 10367 10365 10363 10361 10359 10357 10354 10352 10349 10347 10344
10470 10469 10467 10467 10467 10466 10465 10465 10464 10464 10464 10464 10462 10462 10460 10459 10457 10456 10455 10454 10452 10451 10450 10449 10447 10445 10444 10443 10442 10440 10439 10437 10436 10434 10432 10429 10427 10426 10425 10423 10420 10419 10417 10416 10415 10415 10413 10411 10409 10407 10405 10404 10402 10400 10399 10397 10394 10392 10390 10388 10385 10384 10382 10380 10379 10377 10376 10374 10373 10371 10369 10368 10366 10364 10362 10360 10359 10357 10354 10352 10350 10348 10345 10343 10340 10338
10462 10461 10460 10460 10460 10460 10459 10458 10457 10457 10457 10457 10456 10455 10453 10452 10450 10449 10447 10447 10445 10444 10443 10441 10440 10438 10437 10436 10435 10434 10431 10430 10429 10427 10424 10422 10420 10419 10417 10415 10414 10412 10410 10409 10409 10407 10406 10404 10402 10400 10399 10397 10396 10394 10392 10390 10389 10386 10384 10382 10380 10378 10376 10375 10373 10372 10370 10369 10367 10365 10364 10362 10360 10358 10356 10354 10352 10350 10348 10346 10344 10342 10339 10337 10334 10332
10455 10454 10453 10452 10452 10453 10453 10451 10450 10449 10450 10450 10449 10448 10445 10444 10442 10442 10440 10439 10438 10437 10435 10434 10432 10431 10430 10429 10428 10426 10424 10423 10421 10419 10416 10414 10412 10410 10410 10409 10407 10405 10403 10402 10401 10400 10399 10397 10395 10394 10392 10390 10389 10388 10386 10384 10382 10380 10378 10375 10374 10372 10370 10369 10367 10366 10364 10363 10361 10359 10357 10355 10354 10352 10350 10348 10346 10344 10342 10340 10337 10335 10333 10330 10328 10325
10448 10447 10445 10445 10445 10445 10445 10445 10444 10443 10442 10442 10441 10440 10438 10437 10435 10434 10434 10432 10431 10430 10428 10427 10425 10424 10423 10422 10420 10419 10418 10416 10414 10412 10410 10407 10404 10402 10402 10402 10400 10398 10395 10395 10394 10393 10391 10389 10387 10386 10385 10384 10382 10381 10379 10377 10375 10373 10371 10370 10368 10366 10365 10364 10362 10360 10359 10357 10355 10354 10351 10349 10347 10345 10344 10342 10340 10338 10335 10334 10331 10329 10326 10324 10322 10319
10440 10440 10439 10439 10439 10439 10438 10437 10437 10436 10435 10434 10434 10432 10430 10429 10429 10427 10426 10425 10424 10422 10420 10419 10418 10417 10415 10414 10414 10412 10411 10409 10407 10405 10403 10400 10397 10395 10395 10395 10394 10391 10389 10387 10387 10385 10384 10382 10380 10379 10378 10377 10375 10374 10372 10370 10369 10367 10365 10363 10362 10360 10359 10357 10356 10355 10353 10351 10349 10347 10345 10343 10341 10339 10337 10335 10334 10332 10329 10327 10325 10322 10320 10318 10315 10313
10433 10432 10432 10432 10432 10431 10431 10430 10430 10429 10428 10427 10425 10424 10423 10422 10421 10420 10419 10418 10417 10415 10414 10412 10410 10409 10407 10407 10406 10405 10404 10402 10400 10399 10396 10393 10390 10389 10389 10389 10387 10384 10381 10380 10380 10379 10376 10374 10372 10372 10371 10370 10368 10367 10365 10363 10361 10359 10358 10357 10355 10354 10352 10351 10350 10348 10347 10345 10343 10341 10339 10337 10335 10333 10331 10329 10327 10325 10323 10321 10319 10316 10314 10312 10309 10307
10425 10425 10425 10425 10424 10424 10424 10424 10423 10422 10420 10419 10418 10417 10416 10415 10414 10413 10412 10410 10409 10408 10407 10405 10403 10401 10400 10399 10399 10397 10395 10394 10394 10392 10389 10386 10384 10382 10382 10382 10380 10378 10374 10372 10372 10371 10369 10367 10365 10364 10364 10362 10361 10359 10357 10355 10354 10352 10351 10350 10349 10347 10345 10344 10343 10342 10340 10338 10336 10334 10332 10330 10328 10326 10324 10322 10320 10318 10316 10314 10312 10310 10307 10305 10303 10300
10419 10418 10418 10417 10417 10417 10416 10416 10415 10414 10413 10412 10411 10410 10409 10408 10407 10405 10404 10403 10402 10400 10399 10398 10395 10394 10393 10392 10391 10389 10388 10387 10386 10385 10382 10380 10378 10375 10374 10375 10374 10372 10367 10365 10364 10364 10362 10360 10358 10357 10356 10355 10353 10352 10350 10348 10347 10345 10344 10342 10341 10340 10339 10337 10336 10334 10333 10331 10329 10327 10325 10323 10321 10319 10317 10315 10313 10311 10309 10307 10305 10304 10301 10299 10297 10294
10411 10410 10410 10410 10410 10409 10409 10408 10407 10407 10405 10404 10404 10402 10402 10401 10400 10399 10397 10395 10394 10394 10392 10390 10389 10387 10386 10385 10384 10382 10380 10380 10379 10377 10376 10374 10372 10369 10367 10367 10367 10364 10361 10358 10357 10355 10355 10352 10350 10349 10348 10347 10345 10344 10342 10340 10339 10337 10336 10335 10334 10332 10331 10330 10329 10327 10325 10324 10322 10320 10318 10315 10314 10312 10310 10308 10306 10304 10302 10300 10299 10297 10295 10292 10290 10288
10404 10403 10403 10402 10402 10402 10401 10400 10400 10399 10398 10397 10396 10395 10395 10394 10392 10391 10389 10388 10387 10386 10385 10383 10381 10380 10379 10378 10376 10375 10374 10372 10371 10370 10369 10368 10365 10362 10360 10360 10359 10357 10354 10351 10349 10347 10347 10345 10344 10342 10340 10338 10337 10335 10334 10332 10330 10329 10328 10327 10325 10324 10323 10322 10320 10319 10317 10315 10314 10312 10310 10308 10306 10304 10302 10300 10299 10297 10295 10294 10292 10290 10288 10286 10284 10282
10396 10395 10395 10395 10394 10394 10393 10392 10392 10391 10390 10389 10389 10388 10387 10386 10385 10384 10382 10381 10380 10379 10377 10375 10374 10374 10372 10370 10369 10367 10366 10365 10364 10364 10363 10361 10358 10355 10354 10353 10351 10349 10347 10344 10341 10339 10338 10337 10337 10335 10332 10329 10327 10326 10325 10324 10322 10320 10319 10318 10317 10316 10315 10314 10312 10311 10309 10308 10306 10304 10303 10301 10299 10297 10295 10293 10291 10290 10288 10286 10285 10283 10282 10280 10278 10275
10388 10387 10387 10387 10386 10385 10385 10384 10384 10383 10382 10382 10381 10380 10379 10378 10377 10376 10375 10374 10373 10372 10370 10369 10367 10366 10365 10364 10362 10360 10358 10357 10357 10357 10356 10354 10351 10348 10347 10346 10344 10341 10340 10338 10335 10332 10329 10327 10328 10327 10325 10322 10319 10317 10316 10315 10314 10312 10311 10310 10309 10307 10306 10305 10304 10303 10302 10300 10299 10297 10295 10294 10292 10290 10288 10286 10284 10282 10280 10279 10278 10276 10275 10273 10271 10269
10380 10379 10379 10379 10378 10377 10377 10377 10376 10375 10375 10374 10374 10373 10372 10370 10369 10368 10367 10367 10365 10364 10363 10362 10360 10359 10358 10357 10355 10353 10350 10349 10350 10350 10349 10347 10344 10341 10340 10339 10336 10334 10332 10332 10330 10326 10322 10319 10318 10319 10317 10315 10312 10309 10307 10306 10305 10304 10302 10301 10300 10299 10298 10297 10296 10295 10294 10292 10291 10290 10288 10287 10285 10283 10281 10279 10277 10275 10274 10272 10270 10269 10268 10267 10264 10262
10372 10372 10371 10370 10370 10369 10369 10369 10368 10368 10367 10367 10366 10365 10364 10363 10362 10360 10360 10359 10359 10357 10356 10355 10353 10352 10350 10350 10349 10347 10344 10343 10342 10343 10342 10340 10337 10334 10333 10332 10329 10327 10325 10324 10323 10321 10317 10314 10310 10309 10309 10307 10304 10301 10299 10297 10297 10295 10294 10293 10291 10290 10289 10289 10288 10287 10285 10284 10284 10282 10280 10279 10277 10276 10274 10272 10270 10269 10267 10265 10264 10263 10261 10260 10258 10255
10364 10364 10363 10362 10362 10362 10361 10360 10360 10360 10360 10359 10359 10358 10357 10356 10355 10354 10353 10352 10351 10350 10349 10348 10347 10345 10344 10342 10341 10340 10338 10337 10336 10336 10335 10334 10330 10327 10325 10324 10322 10320 10317 10316 10315 10314 10312 10309 10305 10302 10300 10299 10297 10294 10292 10290 10288 10287 10285 10284 10283 10281 10280 10280 10279 10277 10276 10275 10275 10274 10272 10271 10270 10268 10266 10265 10263 10261 10259 10258 10257 10255 10255 10253 10251 10249
10356 10355 10355 10355 10354 10354 10354 10353 10352 10352 10352 10352 10351 10350 10350 10349 10348 10347 10345 10345 10344 10344 10343 10342 10340 10339 10337 10335 10334 10332 10330 10330 10330 10329 10329 10326 10323 10320 10318 10317 10315 10313 10310 10309 10307 10305 10304 10302 10299 10296 10294 10290 10289 10287 10285 10283 10280 10279 10277 10276 10275 10273 10272 10271 10270 10269 10268 10267 10265 10264 10263 10262 10261 10260 10258 10256 10255 10253 10252 10250 10249 10249 10247 10246 10245 10243
10348 10347 10347 10347 10347 10346 10345 10345 10345 10344 10344 10344 10344 10343 10343 10342 10341 10340 10339 10337 10337 10336 10335 10335 10334 10332 10331 10329 10327 10325 10323 10322 10322 10322 10322 10319 10317 10314 10312 10309 10307 10305 10304 10301 10299 10297 10296 10294 10292 10289 10287 10284 10280 10279 10277 10276 10274 10271 10269 10268 10267 10265 10264 10263 10262 10261 10260 10259 10257 10256 10255 10254 10252 10250 10249 10248 10246 10245 10244 10242 10242 10240 10240 10239 10237 10236
10340 10339 10339 10339 10339 10339 10338 10337 10337 10337 10337 10336 10335 10335 10335 10335 10334 10333 10332 10330 10330 10329 10328 10327 10327 10325 10324 10323 10321 10319 10317 10315 10315 10314 10314 10312 10310 10307 10305 10302 10300 10299 10297 10294 10292 10290 10289 10286 10284 10281 10279 10277 10274 10271 10269 10267 10266 10264 10262 10260 10259 10258 10257 10255 10255 10254 10252 10250 10249 10248 10247 10245 10244 10242 10240 10239 10238 10236 10235 10234 10233 10232 10232 10230 10230 10229
10332 10332 10331 10331 10331 10330 10330 10330 10329 10329 10329 10329 10329 10329 10328 10328 10327 10326 10325 10324 10322 10322 10320 10320 10319 10318 10317 10315 10314 10312 10310 10309 10307 10307 10305 10304 10302 10300 10298 10295 10292 10290 10290 10287 10285 10282 10280 10279 10275 10273 10271 10269 10267 10264 10262 10259 10258 10256 10254 10253 10252 10250 10249 10248 10247 10247 10245 10244 10242 10240 10240 10238 10237 10235 10233 10231 10230 10228 10227 10225 10225 10224 10223 10222 10222 10220
10325 10324 10324 10323 10323 10323 10323 10322 10322 10322 10322 10322 10322 10321 10320 10320 10319 10319 10317 10317 10315 10315 10314 10312 10311 10310 10309 10307 10306 10305 10303 10302 10300 10299 10297 10296 10294 10293 10290 10287 10285 10282 10281 10280 10278 10275 10273 10270 10268 10265 10263 10261 10259 10257 10255 10252 10250 10248 10247 10246 10245 10244 10242 10241 10240 10239 10238 10237 10235 10234 10232 10231 10230 10228 10226 10224 10222 10220 10219 10217 10217 10216 10215 10214 10214 10212
10317 10317 10316 10315 10315 10315 10315 10315 10315 10315 10315 10315 10315 10314 10314 10312 10312 10311 10310 10310 10309 10308 10307 10305 10304 10302 10301 10299 10298 10297 10295 10294 10292 10291 10290 10288 10287 10285 10283 10280 10277 10275 10273 10272 10270 10269 10266 10264 10260 10259 10256 10254 10251 10249 10247 10245 10244 10242 10240 10239 10238 10237 10235 10235 10234 10232 10231 10230 10229 10227 10225 10224 10223 10221 10219 10217 10215 10214 10212 10210 10209 10208 10207 10207 10205 10205
10309 10309 10309 10308 10308 10309 10309 10309 10308 10308 10308 10308 10307 10307 10305 10305 10304 10304 10303 10302 10302 10301 10300 10298 10297 10295 10293 10292 10290 10289 10287 10285 10284 10283 10282 10280 10279 10277 10275 10273 10270 10268 10266 10264 10262 10260 10259 10256 10254 10251 10249 10247 10245 10242 10239 10237 10236 10235 10234 10233 10230 10229 10229 10228 10227 10226 10225 10224 10223 10221 10219 10217 10216 10214 10212 10210 10209 10207 10205 10203 10202 10200 10200 10199 10199 10197
10302 10302 10301 10300 10301 10302 10302 10302 10302 10301 10301 10300 10299 10299 10298 10297 10297 10296 10295 10295 10294 10294 10292 10291 10289 10287 10285 10284 10282 10281 10280 10278 10277 10275 10274 10273 10272 10270 10268 10265 10264 10261 10259 10257 10254 10252 10250 10249 10247 10244 10242 10240 10239 10235 10232 10230 10229 10228 10228 10227 10224 10223 10222 10221 10220 10219 10219 10218 10217 10215 10214 10211 10209 10208 10206 10204 10202 10200 10199 10197 10195 10194 10193 10192 10192 10191
10294 10294 10294 10294 10294 10295 10295 10295 10295 10294 10294 10292 10292 10291 10290 10290 10290 10289 10288 10287 10286 10285 10284 10283 10282 10280 10277 10275 10274 10272 10272 10271 10270 10269 10267 10265 10264 10262 10260 10259 10256 10254 10252 10250 10247 10245 10243 10242 10240 10238 10235 10234 10232 10229 10225 10223 10222 10222 10221 10220 10219 10217 10215 10214 10214 10214 10213 10211 10210 10209 10207 10205 10204 10202 10200 10197 10195 10194 10192 10191 10189 10187 10186 10185 10185 10185
10287 10287 10287 10287 10287 10288 10288 10288 10287 10286 10285 10285 10284 10284 10283 10283 10283 10282 10281 10280 10278 10277 10276 10275 10274 10272 10270 10267 10265 10264 10264 10263 10262 10261 10259 10258 10256 10254 10253 10251 10249 10247 10245 10243 10240 10237 10235 10234 10233 10231 10229 10227 10225 10222 10219 10216 10215 10214 10214 10214 10213 10211 10209 10207 10207 10207 10207 10205 10204 10202 10201 10199 10197 10195 10194 10191 10189 10187 10185 10184 10183 10182 10180 10180 10179 10179
10279 10279 10280 10280 10280 10281 10281 10280 10280 10279 10278 10277 10277 10275 10275 10275 10275 10275 10274 10272 10270 10269 10268 10267 10266 10264 10262 10260 10257 10256 10255 10254 10254 10253 10252 10250 10249 10247 10245 10244 10242 10240 10238 10236 10234 10231 10229 10227 10225 10223 10222 10220 10218 10215 10212 10210 10209 10207 10207 10207 10206 10205 10203 10201 10200 10200 10199 10199 10197 10196 10195 10193 10191 10189 10187 10185 10183 10181 10179 10177 10176 10175 10174 10174 10174 10174
10272 10272 10273 10273 10274 10274 10274 10273 10272 10271 10270 10270 10269 10268 10268 10268 10267 10267 10265 10264 10262 10261 10260 10259 10259 10257 10255 10252 10250 10249 10248 10247 10245 10244 10243 10242 10241 10240 10239 10237 10235 10232 10230 10229 10227 10224 10222 10220 10217 10215 10214 10212 10210 10208 10205 10204 10202 10201 10200 10200 10200 10199 10197 10196 10195 10194 10194 10192 10191 10190 10189 10187 10185 10184 10181 10179 10177 10175 10173 10172 10170 10169 10168 10168 10168 10168
10265 10265 10265 10266 10266 10266 10266 10265 10265 10264 10263 10262 10261 10260 10260 10260 10260 10259 10257 10255 10254 10253 10252 10251 10250 10249 10247 10244 10242 10241 10240 10239 10237 10235 10235 10234 10233 10232 10230 10229 10227 10225 10223 10221 10219 10217 10215 10214 10211 10209 10206 10204 10202 10200 10199 10198 10197 10195 10194 10194 10193 10192 10190 10190 10190 10189 10188 10187 10185 10183 10182 10181 10180 10177 10175 10173 10171 10169 10167 10165 10164 10163 10162 10162 10162 10162
10259 10259 10259 10259 10259 10259 10259 10258 10257 10256 10255 10254 10253 10252 10252 10252 10252 10250 10249 10247 10246 10245 10244 10243 10242 10241 10239 10237 10235 10234 10232 10230 10229 10227 10227 10226 10225 10224 10223 10221 10219 10217 10216 10214 10212 10210 10208 10206 10204 10202 10200 10197 10195 10193 10192 10192 10191 10190 10188 10187 10187 10185 10185 10184 10184 10184 10182 10181 10179 10177 10176 10175 10174 10172 10170 10168 10165 10164 10161 10160 10159 10157 10157 10157 10157 10157
10252 10251 10251 10251 10251 10251 10250 10250 10249 10249 10247 10246 10245 10245 10245 10244 10244 10243 10241 10239 10238 10237 10237 10235 10234 10232 10231 10229 10227 10226 10225 10224 10222 10220 10219 10219 10217 10217 10215 10214 10212 10210 10209 10207 10205 10203 10200 10199 10197 10195 10193 10191 10189 10187 10185 10185 10185 10184 10182 10182 10180 10180 10179 10178 10178 10178 10177 10175 10173 10172 10170 10169 10167 10165 10164 10162 10160 10158 10156 10154 10153 10152 10152 10152 10152 10152
10244 10244 10244 10244 10244 10243 10243 10242 10242 10241 10240 10239 10237 10237 10237 10236 10235 10235 10234 10232 10230 10230 10229 10228 10226 10225 10223 10221 10219 10218 10217 10216 10214 10212 10212 10211 10210 10209 10209 10207 10205 10204 10202 10199 10197 10195 10194 10192 10190 10189 10187 10185 10183 10181 10179 10179 10179 10177 10177 10175 10175 10174 10174 10173 10172 10172 10170 10169 10167 10165 10164 10163 10162 10160 10159 10157 10154 10152 10151 10149 10147 10147 10147 10147 10147 10146
10237 10237 10236 10236 10235 10235 10235 10234 10234 10233 10232 10231 10230 10229 10229 10228 10227 10226 10225 10224 10224 10222 10221 10220 10219 10217 10215 10213 10212 10210 10210 10208 10207 10205 10204 10204 10204 10203 10202 10200 10198 10196 10194 10192 10190 10189 10187 10185 10183 10181 10180 10180 10179 10176 10174 10173 10172 10172 10171 10170 10170 10170 10169 10168 10167 10165 10164 10162 10161 10159 10159 10157 10156 10155 10154 10152 10149 10147 10145 10144 10142 10141 10141 10141 10141 10141
10229 10229 10228 10228 10228 10227 10227 10226 10225 10225 10224 10223 10222 10221 10220 10220 10219 10218 10217 10217 10215 10215 10214 10212 10211 10210 10208 10206 10204 10203 10202 10201 10200 10198 10197 10197 10197 10196 10194 10192 10191 10189 10187 10185 10183 10182 10180 10179 10176 10174 10173 10173 10174 10172 10170 10167 10166 10165 10165 10165 10165 10165 10164 10162 10161 10160 10159 10157 10155 10154 10152 10151 10150 10149 10149 10147 10145 10142 10141 10139 10137 10136 10135 10136 10136 10135